[[{"header":{"parameterUnit":"m.s-1","parameterCategory":2,"la1":30.2991,"la2":30.254,"lo1":-89.0895,"lo2":-89.0444,"dy":0.0017,"dx":0.0017,"nx":28,"ny":28,"refTime":"2024-12-01T03:00:00:Z","depth":"0","parameterNumber":2,"parameterNumberName":"U-component_of_CURRENTS"},"data":[0,0,0,0,0,0,0,0,0,0,0,0,0,0,0,0,0,0,0,0,0,0,0,0,0,0,0,0,0,0,0,0,0,0,0,0,0,0,0,0,0,0,0,0,0,0,0,0,0,0,0,0,0,0,0,0,0,0,-0.2684,-0.2685,0,-0.2701,-0.2701,-0.2701,-0.2656,-0.2655,-0.2653,-0.2652,-0.2631,-0.2631,-0.2632,0,0,0,0,0,0,0,0,0,0,0,0,0,-0.2629,-0.263,-0.2684,-0.2685,-0.2685,-0.2701,-0.2701,-0.2701,-0.2656,-0.2655,-0.2653,-0.2652,-0.2631,-0.2631,-0.2632,0,0,0,0,0,0,0,0,0,0,0,0,0,-0.2648,-0.263,-0.2684,-0.2666,-0.2665,-0.2701,-0.2701,-0.2701,-0.2656,-0.2655,-0.2653,-0.2651,-0.2631,-0.2631,-0.2632,-0.2673,0,0,-0.2635,-0.2635,0,0,0,0,0,0,0,0,-0.2647,-0.265,-0.2668,-0.2668,-0.2666,-0.2676,-0.2674,-0.269,-0.2657,-0.2657,-0.2652,-0.265,-0.2645,-0.2645,-0.2649,-0.2672,-0.2671,-0.2635,-0.2635,-0.2636,-0.2636,0,0,0,0,0,0,0,-0.2646,-0.2649,-0.2689,-0.2669,-0.2668,-0.2663,-0.2663,-0.2677,-0.2659,-0.2657,-0.2654,-0.266,-0.2644,-0.2649,-0.2648,-0.2671,-0.2635,-0.2635,-0.2636,-0.2636,-0.2675,-0.2675,0,0,0,0,0,0,-0.2649,-0.2648,-0.2688,-0.2689,-0.2654,-0.2665,-0.2665,-0.2673,-0.2659,-0.2657,-0.2662,-0.2658,-0.2648,-0.2648,-0.2648,-0.2661,-0.2636,-0.2636,-0.2637,-0.2674,-0.2675,-0.2676,0,0,0,0,0,0,-0.2648,-0.2653,-0.2687,-0.267,-0.2674,-0.2668,-0.2677,-0.2674,-0.2672,-0.2664,-0.2659,-0.2661,-0.2647,-0.2646,-0.2652,-0.2661,-0.2637,-0.2637,-0.2674,-0.2675,-0.2675,-0.2711,0,0,0,0,0,0,-0.2647,-0.2653,-0.2656,-0.2671,-0.2676,-0.2705,-0.2679,-0.2676,-0.268,-0.2675,-0.2663,-0.2659,-0.2645,-0.2651,-0.2653,-0.2662,-0.2638,-0.2673,-0.2674,-0.2675,-0.2709,-0.2713,-0.2716,0,0,0,0,0,-0.2645,-0.2657,-0.2656,-0.266,-0.2682,-0.2706,-0.2708,-0.2696,-0.2682,-0.2685,-0.2674,-0.2659,-0.2658,-0.2653,-0.2655,-0.2664,-0.2673,-0.2674,-0.2675,-0.2708,-0.2712,-0.2716,0,0,0,0,0,0,-0.2632,-0.2654,-0.2653,-0.267,-0.2686,-0.2699,-0.2702,-0.2701,-0.2698,-0.2689,-0.2674,-0.2671,-0.2676,-0.2671,-0.2665,-0.2677,-0.266,-0.2662,-0.2684,-0.2689,-0.2692,-0.269,-0.2639,0,0,0,0,0,-0.2634,-0.2645,-0.2669,-0.268,-0.269,-0.2699,-0.2706,-0.2704,-0.2707,-0.2703,-0.2696,-0.2688,-0.2687,-0.2687,-0.2685,-0.2703,-0.2687,-0.2707,-0.2711,-0.2714,-0.2713,-0.2706,-0.2709,-0.268,-0.268,-0.268,0,0,-0.263,-0.2645,-0.2649,-0.2677,-0.2686,-0.2708,-0.2697,-0.2712,-0.2724,-0.2704,-0.2709,-0.2702,-0.2695,-0.2704,-0.2706,-0.2698,-0.2713,-0.2715,-0.2718,-0.2715,-0.2708,-0.2711,-0.2713,-0.268,-0.268,-0.268,0,0,-0.2631,-0.2644,-0.2654,-0.2675,-0.2698,-0.2711,-0.2718,-0.2736,-0.2734,-0.2751,-0.2732,-0.2732,-0.2738,-0.2731,-0.2729,-0.2756,-0.2731,-0.2753,-0.2772,-0.2766,-0.2769,-0.277,-0.2748,-0.2748,-0.2756,-0.2756,-0.2756,0,-0.2624,-0.2643,-0.2661,-0.2683,-0.2698,-0.2714,-0.2733,-0.2747,-0.2761,-0.2766,-0.2752,-0.2757,-0.275,-0.2761,-0.2763,-0.2764,-0.275,-0.2758,-0.2771,-0.2772,-0.2773,-0.2751,-0.275,-0.2758,-0.2758,-0.2758,-0.2758,0,-0.2637,-0.2654,-0.2665,-0.2695,-0.2717,-0.2737,-0.2766,-0.2781,-0.2784,-0.2793,-0.2802,-0.2796,-0.2794,-0.2795,-0.2787,-0.2796,-0.2778,-0.2775,-0.276,-0.2779,-0.2753,-0.2751,-0.2761,-0.276,-0.276,-0.2759,0,0,-0.2608,-0.2662,-0.2663,-0.2679,-0.2725,-0.2743,-0.2775,-0.2805,-0.2818,-0.2829,-0.2839,-0.2843,-0.2836,-0.2833,-0.2825,-0.2821,-0.2816,-0.2803,-0.2802,-0.278,-0.2789,-0.2697,-0.2686,-0.2815,-0.2815,-0.2815,-0.2766,0,-0.2607,-0.2641,-0.2674,-0.2705,-0.2724,-0.2762,-0.279,-0.282,-0.2838,-0.2854,-0.2856,-0.2859,-0.2853,-0.2847,-0.2847,-0.2826,-0.2814,-0.2829,-0.2775,-0.2773,-0.2688,-0.2682,-0.2562,-0.2501,-0.2764,-0.2764,-0.2764,0,-0.2598,-0.2625,-0.2652,-0.2705,-0.2717,-0.274,-0.2782,-0.2813,-0.2851,-0.2864,-0.2879,-0.288,-0.2883,-0.2868,-0.2846,-0.2855,-0.2823,-0.2803,-0.2801,-0.2699,-0.2677,-0.2526,-0.2488,-0.2461,-0.2761,-0.2761,-0.2761,0,-0.2545,-0.2604,-0.262,-0.264,-0.2705,-0.2721,-0.2755,-0.2804,-0.2824,-0.2865,-0.2873,-0.289,-0.2878,-0.2864,-0.2827,-0.2837,-0.2787,-0.2797,-0.2681,-0.2674,-0.2552,-0.2534,-0.2478,-0.2769,-0.2769,-0.2769,-0.2769,0,-0.252,-0.253,-0.2595,-0.2602,-0.262,-0.2685,-0.2705,-0.2748,-0.2797,-0.2809,-0.2863,-0.286,-0.2875,-0.2852,-0.2827,-0.2738,-0.2786,-0.2673,-0.2652,-0.256,-0.2543,-0.2498,-0.252,-0.2767,-0.2767,-0.2768,-0.2768,0,-0.2441,-0.249,-0.2508,-0.2573,-0.259,-0.2598,-0.2661,-0.2675,-0.2743,-0.2759,-0.2768,-0.2824,-0.2797,-0.2792,-0.2756,-0.2711,-0.2596,-0.2609,-0.2489,-0.2454,-0.2315,-0.2343,-0.2258,-0.2197,-0.2476,-0.2473,-0.2471,0,-0.2398,-0.2398,-0.2457,-0.2459,-0.2481,-0.2511,-0.2525,-0.2618,-0.264,-0.2721,-0.2714,-0.2722,-0.2688,-0.2614,-0.2549,-0.2474,-0.248,-0.2317,-0.2312,-0.2275,-0.2294,-0.2319,-0.2277,-0.2169,-0.2164,-0.216,-0.2157,0,-0.2302,-0.2322,-0.2335,-0.2346,-0.2358,-0.2379,-0.2417,-0.2431,-0.2533,-0.2553,-0.257,-0.2556,-0.2506,-0.2379,-0.2293,-0.2239,-0.2246,-0.2236,-0.2233,-0.2069,-0.2058,-0.1998,-0.2237,-0.2124,-0.2128,-0.213,-0.2132,-0.2133,-0.2209,-0.2193,-0.2211,-0.2206,-0.2223,-0.2221,-0.2193,-0.2253,-0.2264,-0.2272,-0.2363,-0.2311,-0.2247,-0.2107,-0.2047,-0.1909,-0.1996,-0.1854,-0.1897,-0.1931,-0.1848,-0.2002,-0.1847,-0.1849,-0.185,-0.1851,-0.1852,0,-0.2079,-0.2076,-0.2069,-0.2061,-0.202,-0.2079,-0.2091,-0.2042,-0.2002,-0.2054,-0.2042,-0.2003,-0.186,-0.1825,-0.1697,-0.1604,-0.158,-0.1574,-0.1597,-0.1574,-0.1721,-0.1683,-0.1442,-0.1442,-0.1442,-0.1443,-0.1443,-0.1443,-0.2012,-0.1957,-0.1955,-0.1849,-0.1838,-0.1742,-0.1714,-0.1672,-0.1677,-0.1624,-0.1637,-0.1698,-0.1678,-0.1705,-0.1554,-0.1467,-0.1444,-0.1381,-0.1434,-0.1562,-0.1593,-0.1622,-0.159,-0.1334,-0.1334,-0.1214,-0.1213,-0.1213]},{"header":{"parameterUnit":"m.s-1","parameterCategory":2,"la1":30.2991,"la2":30.254,"lo1":-89.0895,"lo2":-89.0444,"dy":0.0017,"dx":0.0017,"nx":28,"ny":28,"refTime":"2024-12-01T03:00:00:Z","depth":"0","parameterNumber":3,"parameterNumberName":"V-component_of_CURRENTS"},"data":[0,0,0,0,0,0,0,0,0,0,0,0,0,0,0,0,0,0,0,0,0,0,0,0,0,0,0,0,0,0,0,0,0,0,0,0,0,0,0,0,0,0,0,0,0,0,0,0,0,0,0,0,0,0,0,0,0,0,-0.0507,-0.0506,0,-0.0424,-0.0423,-0.0422,-0.0363,-0.0362,-0.0362,-0.0362,-0.0238,-0.0235,-0.0232,0,0,0,0,0,0,0,0,0,0,0,0,0,-0.0561,-0.0561,-0.0507,-0.0506,-0.0505,-0.0424,-0.0423,-0.0421,-0.0363,-0.0362,-0.0362,-0.0362,-0.0239,-0.0235,-0.0232,0,0,0,0,0,0,0,0,0,0,0,0,0,-0.0513,-0.056,-0.0507,-0.0467,-0.0463,-0.0424,-0.0423,-0.0421,-0.0363,-0.0362,-0.0362,-0.0361,-0.024,-0.0236,-0.0231,-0.0214,0,0,-0.0218,-0.0216,0,0,0,0,0,0,0,0,-0.0515,-0.051,-0.0474,-0.047,-0.0465,-0.0404,-0.0396,-0.035,-0.0363,-0.0399,-0.0362,-0.0361,-0.0291,-0.0282,-0.0266,-0.0208,-0.0203,-0.0217,-0.0214,-0.0213,-0.0211,0,0,0,0,0,0,0,-0.0519,-0.0513,-0.0473,-0.0473,-0.0468,-0.0435,-0.0428,-0.0387,-0.0347,-0.0396,-0.0392,-0.0385,-0.0288,-0.0271,-0.0263,-0.0201,-0.0217,-0.0213,-0.0211,-0.0209,-0.0111,-0.0112,0,0,0,0,0,0,-0.0535,-0.0517,-0.0475,-0.047,-0.0491,-0.0435,-0.0427,-0.0423,-0.0348,-0.0337,-0.0386,-0.0383,-0.0279,-0.0268,-0.0258,-0.0237,-0.0213,-0.0208,-0.0206,-0.0111,-0.0111,-0.0112,0,0,0,0,0,0,-0.0537,-0.0533,-0.0479,-0.0492,-0.0484,-0.0435,-0.0431,-0.0422,-0.0405,-0.0341,-0.0329,-0.0378,-0.0278,-0.0265,-0.0226,-0.0232,-0.0206,-0.0202,-0.0111,-0.0111,-0.0112,-0.0193,0,0,0,0,0,0,-0.0539,-0.0534,-0.0537,-0.0494,-0.0483,-0.0462,-0.0431,-0.0421,-0.0402,-0.0397,-0.0331,-0.0319,-0.0277,-0.0233,-0.0222,-0.0225,-0.0199,-0.0111,-0.0111,-0.0111,-0.019,-0.0195,-0.02,0,0,0,0,0,-0.0541,-0.0551,-0.0538,-0.0533,-0.049,-0.0463,-0.0454,-0.0416,-0.0402,-0.0398,-0.0354,-0.0321,-0.0226,-0.023,-0.0216,-0.0219,-0.0111,-0.0111,-0.0111,-0.0187,-0.0194,-0.02,0,0,0,0,0,0,-0.0574,-0.0544,-0.053,-0.0529,-0.0501,-0.0453,-0.0448,-0.0423,-0.0386,-0.0381,-0.0322,-0.0307,-0.0274,-0.0235,-0.0241,-0.019,-0.0163,-0.016,-0.0225,-0.0231,-0.0236,-0.0251,-0.0195,0,0,0,0,0,-0.0585,-0.0585,-0.0548,-0.0548,-0.0538,-0.0495,-0.0479,-0.0455,-0.0417,-0.04,-0.0354,-0.0305,-0.0265,-0.0241,-0.0198,-0.0171,-0.0129,-0.0163,-0.0168,-0.0173,-0.0175,-0.0132,-0.0134,-0.0112,-0.0112,-0.0112,0,0,-0.0597,-0.0581,-0.058,-0.0555,-0.053,-0.0526,-0.0484,-0.0467,-0.0461,-0.0392,-0.0369,-0.0322,-0.0262,-0.0232,-0.0214,-0.02,-0.0154,-0.0173,-0.0178,-0.0177,-0.0133,-0.0135,-0.0137,-0.0112,-0.0112,-0.0112,0,0,-0.0628,-0.0609,-0.0622,-0.0605,-0.0578,-0.0551,-0.0551,-0.0507,-0.0485,-0.0457,-0.0408,-0.0367,-0.0304,-0.0263,-0.0234,-0.0242,-0.0185,-0.0227,-0.0264,-0.0223,-0.0225,-0.0226,-0.0168,-0.0163,-0.0229,-0.023,-0.023,0,-0.0645,-0.0656,-0.0621,-0.0629,-0.0623,-0.0569,-0.0582,-0.055,-0.0499,-0.0484,-0.046,-0.037,-0.0319,-0.0282,-0.0282,-0.0255,-0.0217,-0.0249,-0.0232,-0.0232,-0.0231,-0.0171,-0.0165,-0.0233,-0.0233,-0.0233,-0.0232,0,-0.0686,-0.0694,-0.07,-0.0695,-0.0682,-0.0682,-0.0641,-0.0621,-0.0587,-0.0552,-0.0507,-0.0435,-0.0382,-0.0359,-0.032,-0.0293,-0.0262,-0.0247,-0.0221,-0.0239,-0.0174,-0.0166,-0.0239,-0.0238,-0.0236,-0.0236,0,0,-0.0727,-0.0731,-0.0733,-0.0748,-0.0719,-0.0715,-0.0703,-0.0677,-0.0668,-0.0609,-0.059,-0.0516,-0.0472,-0.0436,-0.038,-0.0339,-0.0297,-0.0297,-0.0293,-0.0249,-0.0193,-0.0131,-0.0115,-0.0284,-0.0283,-0.0283,-0.0146,0,-0.0771,-0.0813,-0.0795,-0.0828,-0.0846,-0.0799,-0.0792,-0.0759,-0.0713,-0.0677,-0.0598,-0.0556,-0.0503,-0.0476,-0.0428,-0.0326,-0.0281,-0.0334,-0.0174,-0.0168,-0.0119,-0.0106,-0.0072,0.0055,-0.0138,-0.0137,-0.0136,0,-0.0819,-0.0842,-0.0888,-0.0902,-0.0904,-0.0909,-0.089,-0.0876,-0.0808,-0.077,-0.0712,-0.0643,-0.0563,-0.0521,-0.0366,-0.0403,-0.031,-0.0231,-0.0224,-0.0132,-0.0092,0.0042,0.0078,0.021,-0.0123,-0.0124,-0.0125,0,-0.0874,-0.0906,-0.0949,-0.0953,-0.0955,-0.0963,-0.0956,-0.0907,-0.0892,-0.0827,-0.0799,-0.07,-0.0632,-0.0519,-0.0344,-0.036,-0.0163,-0.0165,-0.0019,-0.0013,0.0066,0.0078,0.0241,-0.0068,-0.0068,-0.0069,-0.0069,0,-0.0932,-0.0965,-0.098,-0.1005,-0.1047,-0.1023,-0.1043,-0.1016,-0.0967,-0.0943,-0.0852,-0.0795,-0.0629,-0.0491,-0.0356,-0.0144,-0.0169,-0.0015,0.0026,0.0041,0.0049,0.0208,0.0254,-0.0063,-0.0065,-0.0066,-0.0066,0,-0.0986,-0.0996,-0.1049,-0.107,-0.1078,-0.1107,-0.1106,-0.1109,-0.1056,-0.1018,-0.0998,-0.0851,-0.0663,-0.0479,-0.0262,-0.0143,0.0132,0.0113,0.0132,0.0173,0.0409,0.0448,0.0661,0.0735,0.0283,0.0286,0.0288,0,-0.1018,-0.1051,-0.1101,-0.1134,-0.1147,-0.118,-0.1194,-0.1159,-0.115,-0.104,-0.1017,-0.0834,-0.0681,-0.033,-0.0089,0.0169,0.0258,0.0342,0.0311,0.0442,0.0516,0.054,0.0586,0.0393,0.0396,0.0398,0.04,0,-0.1073,-0.1089,-0.1131,-0.1201,-0.1236,-0.1272,-0.1283,-0.1289,-0.1225,-0.1158,-0.1025,-0.0893,-0.0544,-0.0225,0.011,0.0263,0.0442,0.0394,0.0524,0.0616,0.0659,0.0743,0.0293,0.0419,0.0417,0.0416,0.0415,0.0414,-0.1102,-0.1149,-0.1201,-0.1262,-0.1307,-0.1343,-0.1357,-0.1333,-0.129,-0.1161,-0.1033,-0.0789,-0.0353,0.0132,0.0309,0.0675,0.0626,0.0769,0.0809,0.0823,0.0887,0.0489,0.0659,0.0659,0.0658,0.0658,0.0658,0,-0.1134,-0.1184,-0.1254,-0.1323,-0.1371,-0.1378,-0.1393,-0.1363,-0.129,-0.1133,-0.0962,-0.0467,-0.0031,0.0363,0.0871,0.1068,0.1094,0.1164,0.1198,0.1226,0.0882,0.0878,0.111,0.111,0.111,0.1109,0.1109,0.1109,-0.1152,-0.1224,-0.1263,-0.1349,-0.1393,-0.1416,-0.1416,-0.1339,-0.1219,-0.0921,-0.0633,-0.0415,0.0148,0.0931,0.1389,0.1435,0.1575,0.158,0.1649,0.1401,0.1366,0.1333,0.1343,0.1668,0.1668,0.1976,0.1979,0.1982]}],[{"header":{"parameterUnit":"m.s-1","parameterCategory":2,"la1":30.2991,"la2":30.254,"lo1":-89.0895,"lo2":-89.0444,"dy":0.0017,"dx":0.0017,"nx":28,"ny":28,"refTime":"2024-12-01T03:00:00:Z","depth":"2","parameterNumber":2,"parameterNumberName":"U-component_of_CURRENTS"},"data":[0,0,0,0,0,0,0,0,0,0,0,0,0,0,0,0,0,0,0,0,0,0,0,0,0,0,0,0,0,0,0,0,0,0,0,0,0,0,0,0,0,0,0,0,0,0,0,0,0,0,0,0,0,0,0,0,0,0,-0.2407,-0.2408,0,-0.2432,-0.2432,-0.2432,-0.24,-0.2399,-0.2398,-0.2398,-0.2394,-0.2395,-0.2395,0,0,0,0,0,0,0,0,0,0,0,0,0,-0.2348,-0.2349,-0.2407,-0.2408,-0.2408,-0.2432,-0.2432,-0.2432,-0.2401,-0.2399,-0.2398,-0.2397,-0.2394,-0.2394,-0.2395,0,0,0,0,0,0,0,0,0,0,0,0,0,-0.2371,-0.2349,-0.2407,-0.2397,-0.2396,-0.2432,-0.2432,-0.2432,-0.2401,-0.2399,-0.2398,-0.2397,-0.2393,-0.2394,-0.2396,-0.2432,0,0,-0.2399,-0.24,0,0,0,0,0,0,0,0,-0.237,-0.2373,-0.2398,-0.2398,-0.2397,-0.2413,-0.241,-0.2431,-0.2401,-0.2397,-0.2397,-0.2396,-0.24,-0.2401,-0.2406,-0.2432,-0.2432,-0.2399,-0.24,-0.2401,-0.2401,0,0,0,0,0,0,0,-0.2369,-0.2372,-0.2415,-0.2399,-0.2398,-0.2396,-0.2397,-0.2414,-0.2404,-0.2397,-0.2396,-0.2402,-0.2399,-0.2405,-0.2406,-0.2432,-0.2399,-0.24,-0.2401,-0.2402,-0.2451,-0.2451,0,0,0,0,0,0,-0.2371,-0.2371,-0.2414,-0.2416,-0.2382,-0.2398,-0.24,-0.2408,-0.2405,-0.2404,-0.2403,-0.24,-0.2404,-0.2404,-0.2405,-0.2427,-0.2401,-0.2402,-0.2402,-0.245,-0.2451,-0.2451,0,0,0,0,0,0,-0.2369,-0.2374,-0.2413,-0.2395,-0.24,-0.2401,-0.241,-0.2409,-0.2412,-0.241,-0.2407,-0.2406,-0.2403,-0.2404,-0.2416,-0.2427,-0.2402,-0.2403,-0.2449,-0.245,-0.2451,-0.2483,0,0,0,0,0,0,-0.2368,-0.2374,-0.2378,-0.2396,-0.2401,-0.2433,-0.2412,-0.2411,-0.2419,-0.2415,-0.2412,-0.241,-0.2401,-0.2415,-0.2418,-0.2428,-0.2404,-0.2449,-0.245,-0.2451,-0.2481,-0.2485,-0.2488,0,0,0,0,0,-0.2365,-0.2377,-0.2379,-0.2384,-0.2408,-0.2434,-0.2436,-0.2431,-0.2421,-0.2426,-0.2422,-0.241,-0.2423,-0.2417,-0.242,-0.2431,-0.2448,-0.2449,-0.2451,-0.248,-0.2484,-0.2488,0,0,0,0,0,0,-0.2352,-0.2376,-0.2377,-0.2395,-0.2413,-0.2429,-0.2435,-0.2437,-0.244,-0.2434,-0.2426,-0.2425,-0.2437,-0.2434,-0.2427,-0.2447,-0.2431,-0.2433,-0.2452,-0.2456,-0.246,-0.2455,-0.2405,0,0,0,0,0,-0.2355,-0.2366,-0.2392,-0.2404,-0.2415,-0.2428,-0.2437,-0.2438,-0.2446,-0.2446,-0.2445,-0.2444,-0.2448,-0.2451,-0.2454,-0.2475,-0.2459,-0.2481,-0.2485,-0.2488,-0.2486,-0.2477,-0.2479,-0.2456,-0.2456,-0.2456,0,0,-0.2351,-0.2367,-0.2373,-0.2402,-0.2413,-0.2436,-0.2428,-0.2447,-0.2461,-0.2447,-0.2461,-0.2459,-0.2456,-0.2471,-0.2476,-0.2468,-0.2486,-0.2489,-0.2492,-0.2488,-0.2478,-0.2481,-0.2482,-0.2457,-0.2456,-0.2456,0,0,-0.2354,-0.2368,-0.238,-0.2401,-0.2427,-0.2441,-0.2449,-0.2471,-0.2474,-0.2497,-0.2483,-0.2487,-0.2503,-0.2497,-0.2498,-0.2525,-0.2504,-0.2527,-0.2543,-0.2535,-0.2536,-0.2538,-0.2517,-0.2516,-0.2529,-0.2529,-0.253,0,-0.2349,-0.2369,-0.2388,-0.241,-0.2426,-0.2445,-0.2465,-0.2481,-0.2503,-0.2509,-0.2502,-0.2517,-0.2513,-0.2525,-0.2529,-0.2533,-0.252,-0.2528,-0.2539,-0.254,-0.254,-0.2518,-0.2517,-0.2531,-0.2531,-0.2531,-0.2531,0,-0.2362,-0.2382,-0.2393,-0.2426,-0.2448,-0.247,-0.25,-0.2518,-0.2527,-0.2538,-0.2554,-0.2552,-0.2556,-0.2558,-0.2553,-0.2561,-0.2547,-0.2544,-0.2527,-0.2545,-0.252,-0.2518,-0.2534,-0.2533,-0.2532,-0.2532,0,0,-0.2336,-0.2391,-0.2393,-0.241,-0.2458,-0.2476,-0.2511,-0.2542,-0.2557,-0.2575,-0.2588,-0.2597,-0.2592,-0.2591,-0.2586,-0.258,-0.2573,-0.2566,-0.2565,-0.2543,-0.2546,-0.2464,-0.2454,-0.2574,-0.2574,-0.2574,-0.2526,0,-0.2336,-0.2373,-0.2406,-0.244,-0.246,-0.2498,-0.2527,-0.2559,-0.2581,-0.2601,-0.2604,-0.2614,-0.2607,-0.2606,-0.2603,-0.2585,-0.257,-0.2586,-0.2534,-0.2532,-0.2456,-0.245,-0.2273,-0.2209,-0.2523,-0.2523,-0.2523,0,-0.233,-0.2359,-0.239,-0.2444,-0.2457,-0.2481,-0.2526,-0.2557,-0.2597,-0.2614,-0.263,-0.2634,-0.2637,-0.2623,-0.2598,-0.261,-0.2577,-0.2558,-0.2556,-0.2465,-0.2446,-0.2243,-0.2193,-0.2519,-0.2519,-0.252,-0.252,0,-0.2283,-0.2343,-0.2364,-0.2384,-0.245,-0.2468,-0.2502,-0.2551,-0.2573,-0.2617,-0.263,-0.2644,-0.2638,-0.2619,-0.2583,-0.2592,-0.2543,-0.2549,-0.2442,-0.2436,-0.2266,-0.2244,-0.2517,-0.2517,-0.2517,-0.2517,-0.2517,0,-0.2261,-0.2276,-0.2343,-0.2353,-0.2377,-0.2438,-0.2464,-0.2505,-0.2557,-0.2571,-0.2623,-0.2623,-0.2636,-0.2614,-0.2585,-0.2499,-0.2541,-0.2434,-0.2415,-0.2271,-0.2252,-0.2509,-0.2509,-0.2515,-0.2516,-0.2516,-0.2516,0,-0.2191,-0.2242,-0.2265,-0.2333,-0.2351,-0.2364,-0.2429,-0.2445,-0.2514,-0.2534,-0.2545,-0.2597,-0.257,-0.2564,-0.2525,-0.2479,-0.2421,-0.2376,-0.2202,-0.2162,-0.2321,-0.2323,-0.2256,-0.2253,-0.225,-0.2248,-0.2246,0,-0.2154,-0.2159,-0.2224,-0.223,-0.2255,-0.2291,-0.2308,-0.2398,-0.242,-0.25,-0.2495,-0.2505,-0.2468,-0.2395,-0.2326,-0.2247,-0.2328,-0.204,-0.2023,-0.2304,-0.2293,-0.23,-0.2306,-0.1811,-0.1805,-0.1801,-0.1797,0,-0.207,-0.2095,-0.2112,-0.2131,-0.2149,-0.2173,-0.2213,-0.2227,-0.2324,-0.2343,-0.2353,-0.2335,-0.2286,-0.2126,-0.2043,-0.198,-0.2046,-0.1947,-0.2272,-0.191,-0.1881,-0.1872,-0.1893,-0.1758,-0.1762,-0.1765,-0.1767,-0.1768,-0.1989,-0.198,-0.2003,-0.2006,-0.2028,-0.2028,-0.2001,-0.2054,-0.206,-0.2057,-0.2143,-0.206,-0.204,-0.182,-0.1716,-0.1643,-0.1789,-0.1707,-0.1722,-0.1741,-0.1704,-0.1672,-0.1502,-0.1504,-0.1506,-0.1508,-0.151,0,-0.1876,-0.1876,-0.1874,-0.1873,-0.1839,-0.1898,-0.1906,-0.1853,-0.1803,-0.1831,-0.1808,-0.1622,-0.1504,-0.1496,-0.132,-0.1279,-0.1276,-0.1224,-0.1223,-0.1262,-0.1297,-0.1239,-0.0913,-0.0911,-0.0909,-0.0908,0,0,-0.1816,-0.177,-0.1767,-0.1674,-0.1669,-0.158,-0.155,-0.1495,-0.1479,-0.1388,-0.1347,-0.1438,-0.146,-0.1199,-0.1124,-0.099,-0.1118,-0.0937,-0.1416,-0.1454,-0.1487,-0.1573,-0.1527,0,0,0,0,0]},{"header":{"parameterUnit":"m.s-1","parameterCategory":2,"la1":30.2991,"la2":30.254,"lo1":-89.0895,"lo2":-89.0444,"dy":0.0017,"dx":0.0017,"nx":28,"ny":28,"refTime":"2024-12-01T03:00:00:Z","depth":"2","parameterNumber":3,"parameterNumberName":"V-component_of_CURRENTS"},"data":[0,0,0,0,0,0,0,0,0,0,0,0,0,0,0,0,0,0,0,0,0,0,0,0,0,0,0,0,0,0,0,0,0,0,0,0,0,0,0,0,0,0,0,0,0,0,0,0,0,0,0,0,0,0,0,0,0,0,-0.036,-0.0359,0,-0.0288,-0.0287,-0.0286,-0.0233,-0.0233,-0.0232,-0.0232,-0.0122,-0.012,-0.0117,0,0,0,0,0,0,0,0,0,0,0,0,0,-0.0401,-0.0401,-0.036,-0.0359,-0.0358,-0.0288,-0.0287,-0.0286,-0.0233,-0.0233,-0.0232,-0.0232,-0.0123,-0.012,-0.0117,0,0,0,0,0,0,0,0,0,0,0,0,0,-0.0361,-0.0401,-0.036,-0.0325,-0.0321,-0.0288,-0.0287,-0.0285,-0.0233,-0.0233,-0.0232,-0.0232,-0.0124,-0.012,-0.0116,-0.0102,0,0,-0.0104,-0.0103,0,0,0,0,0,0,0,0,-0.0363,-0.0359,-0.0331,-0.0327,-0.0323,-0.027,-0.0261,-0.0223,-0.0233,-0.0265,-0.0232,-0.0232,-0.0169,-0.0162,-0.0148,-0.0097,-0.0092,-0.0104,-0.0102,-0.01,-0.0099,0,0,0,0,0,0,0,-0.0366,-0.0362,-0.033,-0.033,-0.0325,-0.0295,-0.0289,-0.0253,-0.0219,-0.0262,-0.0259,-0.0253,-0.0167,-0.0152,-0.0145,-0.0091,-0.0104,-0.0101,-0.0098,-0.0097,-0.0014,-0.0014,0,0,0,0,0,0,-0.0381,-0.0365,-0.0333,-0.0328,-0.0343,-0.0295,-0.0288,-0.0286,-0.022,-0.021,-0.0253,-0.0251,-0.0159,-0.0149,-0.0141,-0.0117,-0.01,-0.0096,-0.0094,-0.0013,-0.0014,-0.0014,0,0,0,0,0,0,-0.0382,-0.0379,-0.0335,-0.0345,-0.0338,-0.0295,-0.0293,-0.0285,-0.0271,-0.0214,-0.0203,-0.0248,-0.0158,-0.0146,-0.0113,-0.0113,-0.0094,-0.0091,-0.0013,-0.0013,-0.0014,-0.0072,0,0,0,0,0,0,-0.0384,-0.038,-0.0384,-0.0347,-0.0338,-0.0322,-0.0294,-0.0284,-0.0269,-0.0264,-0.0206,-0.0195,-0.0157,-0.0119,-0.0109,-0.0107,-0.0088,-0.0013,-0.0013,-0.0014,-0.007,-0.0074,-0.0078,0,0,0,0,0,-0.0385,-0.0396,-0.0385,-0.0381,-0.0346,-0.0323,-0.0316,-0.0282,-0.0269,-0.0267,-0.0228,-0.0197,-0.0114,-0.0116,-0.0105,-0.0101,-0.0013,-0.0013,-0.0014,-0.0068,-0.0073,-0.0077,0,0,0,0,0,0,-0.0415,-0.0391,-0.0378,-0.038,-0.0356,-0.0314,-0.031,-0.0289,-0.0256,-0.0253,-0.0198,-0.0185,-0.0157,-0.0123,-0.0127,-0.0078,-0.0058,-0.0056,-0.0103,-0.0108,-0.0112,-0.0123,-0.0085,0,0,0,0,0,-0.0426,-0.0428,-0.0396,-0.0398,-0.039,-0.0352,-0.0339,-0.0318,-0.0284,-0.027,-0.0228,-0.0185,-0.0149,-0.0125,-0.0089,-0.0062,-0.0023,-0.0052,-0.0056,-0.0059,-0.0061,-0.0007,-0.0006,-0.0015,-0.0015,-0.0015,0,0,-0.0437,-0.0425,-0.0425,-0.0405,-0.0384,-0.0378,-0.0343,-0.033,-0.0321,-0.0263,-0.024,-0.02,-0.0146,-0.0117,-0.01,-0.0087,-0.0037,-0.006,-0.0063,-0.0062,-0.0007,-0.0006,-0.0005,-0.0015,-0.0015,-0.0015,0,0,-0.0465,-0.0452,-0.0464,-0.0449,-0.0427,-0.0402,-0.0402,-0.0365,-0.0343,-0.0319,-0.0275,-0.0235,-0.0182,-0.0139,-0.0111,-0.0115,-0.0064,-0.0106,-0.0128,-0.0076,-0.0075,-0.0073,-0.0025,-0.0018,-0.0103,-0.0103,-0.0103,0,-0.0481,-0.0492,-0.0463,-0.047,-0.0463,-0.0418,-0.0427,-0.0398,-0.0354,-0.0335,-0.0321,-0.0235,-0.0191,-0.0143,-0.0145,-0.0123,-0.0089,-0.0116,-0.0081,-0.0079,-0.0076,-0.0027,-0.0019,-0.0106,-0.0105,-0.0105,-0.0105,0,-0.0517,-0.0524,-0.053,-0.0524,-0.0512,-0.0512,-0.0473,-0.0455,-0.0425,-0.039,-0.0343,-0.028,-0.0227,-0.0206,-0.0176,-0.0135,-0.0115,-0.0098,-0.0072,-0.0079,-0.0026,-0.0017,-0.011,-0.0109,-0.0108,-0.0107,0,0,-0.0555,-0.0557,-0.0559,-0.0568,-0.0542,-0.0537,-0.0521,-0.049,-0.0476,-0.0423,-0.0396,-0.0327,-0.0288,-0.0254,-0.0204,-0.0155,-0.0107,-0.0125,-0.0121,-0.0081,0.0006,0.0038,0.0052,-0.0085,-0.0084,-0.0083,0.0035,0,-0.0592,-0.0627,-0.0609,-0.0632,-0.0645,-0.0601,-0.059,-0.0553,-0.0509,-0.047,-0.0391,-0.0349,-0.0306,-0.0282,-0.0226,-0.0137,-0.0085,-0.014,0.0011,0.0016,0.0042,0.0063,0.0042,0.0147,0.0044,0.0046,0.0047,0,-0.0633,-0.0651,-0.0688,-0.0691,-0.0691,-0.0693,-0.0665,-0.0648,-0.0575,-0.054,-0.0476,-0.0412,-0.0328,-0.0297,-0.0145,-0.0184,-0.0098,-0.0027,-0.002,0.0037,0.0066,0.014,0.0168,0.0063,0.0061,0.006,0.0059,0,-0.0682,-0.0703,-0.0737,-0.0739,-0.0733,-0.0736,-0.0725,-0.0671,-0.0655,-0.0581,-0.0556,-0.0448,-0.0391,-0.0273,-0.0124,-0.0135,0.0046,0.0053,0.0166,0.017,0.0197,0.02,0.0158,0.0158,0.0158,0.0158,0.0157,0,-0.073,-0.0755,-0.0766,-0.0786,-0.0819,-0.0791,-0.0802,-0.0771,-0.072,-0.0697,-0.0598,-0.0547,-0.0384,-0.0258,-0.013,0.0053,0.0047,0.0171,0.0206,0.0176,0.0176,0.0136,0.0131,0.0162,0.0161,0.016,0.016,0,-0.0779,-0.0785,-0.0827,-0.0841,-0.0847,-0.0871,-0.0866,-0.0866,-0.081,-0.0775,-0.0755,-0.0613,-0.0444,-0.0269,-0.0062,0.0047,0.0215,0.028,0.0232,0.026,0.0303,0.0294,0.0415,0.0417,0.0419,0.0421,0.0422,0,-0.0806,-0.0835,-0.0877,-0.0908,-0.0919,-0.0945,-0.0959,-0.0919,-0.0909,-0.0808,-0.079,-0.0625,-0.049,-0.017,0.005,0.0289,0.0281,0.04,0.0378,0.0309,0.0332,0.032,0.0309,0.0393,0.0394,0.0394,0.0395,0,-0.0856,-0.0871,-0.0907,-0.0975,-0.1008,-0.1038,-0.1049,-0.1056,-0.0994,-0.0936,-0.0821,-0.0703,-0.0397,-0.0128,0.0173,0.0309,0.0358,0.0424,0.0384,0.0324,0.0296,0.0315,0.0304,0.0402,0.0401,0.0401,0.0401,0.04,-0.0885,-0.0927,-0.0976,-0.1035,-0.1077,-0.1114,-0.1128,-0.1107,-0.1071,-0.0957,-0.0849,-0.0633,-0.0391,0.0053,0.0262,0.0456,0.0449,0.0498,0.0493,0.0487,0.0456,0.0433,0.0559,0.0559,0.0559,0.0559,0.056,0,-0.0917,-0.0964,-0.103,-0.1095,-0.1143,-0.1151,-0.1168,-0.114,-0.108,-0.0944,-0.0797,-0.0503,-0.0202,0.0053,0.0367,0.0545,0.0522,0.0572,0.0504,0.0497,0.049,0.0456,0.0561,0.0562,0.0562,0.0562,0,0,-0.0935,-0.1003,-0.1039,-0.1125,-0.117,-0.1199,-0.1202,-0.1132,-0.1025,-0.0865,-0.0695,-0.0487,-0.0181,0.0037,0.026,0.0422,0.0412,0.0438,0.0421,0.0308,0.0299,0.0436,0.0375,0,0,0,0,0]}],[{"header":{"parameterUnit":"m.s-1","parameterCategory":2,"la1":30.2991,"la2":30.254,"lo1":-89.0895,"lo2":-89.0444,"dy":0.0017,"dx":0.0017,"nx":28,"ny":28,"refTime":"2024-12-01T03:00:00:Z","depth":"4","parameterNumber":2,"parameterNumberName":"U-component_of_CURRENTS"},"data":[0,0,0,0,0,0,0,0,0,0,0,0,0,0,0,0,0,0,0,0,0,0,0,0,0,0,0,0,0,0,0,0,0,0,0,0,0,0,0,0,0,0,0,0,0,0,0,0,0,0,0,0,0,0,0,0,0,0,-0.1714,-0.1715,0,-0.178,-0.1781,-0.1781,-0.1816,-0.1816,-0.1816,-0.1816,-0.1891,-0.1892,-0.1894,0,0,0,0,0,0,0,0,0,0,0,0,0,-0.1624,-0.1626,-0.1714,-0.1715,-0.1716,-0.178,-0.1781,-0.1781,-0.1816,-0.1816,-0.1816,-0.1816,-0.189,-0.1892,-0.1894,0,0,0,0,0,0,0,0,0,0,0,0,0,-0.1673,-0.1626,-0.1714,-0.1742,-0.1745,-0.178,-0.1781,-0.1782,-0.1816,-0.1816,-0.1816,-0.1816,-0.1889,-0.1892,-0.1895,-0.1906,0,0,-0.1903,-0.1904,0,0,0,0,0,0,0,0,-0.167,-0.1676,-0.1737,-0.174,-0.1744,-0.1791,-0.1776,-0.1824,-0.1816,-0.1787,-0.1816,-0.1817,-0.1859,-0.1864,-0.1874,-0.1909,-0.1913,-0.1903,-0.1905,-0.1906,-0.1907,0,0,0,0,0,0,0,-0.1666,-0.1673,-0.1739,-0.1738,-0.1742,-0.1753,-0.176,-0.1785,-0.182,-0.179,-0.1793,-0.1802,-0.1861,-0.1871,-0.1876,-0.1914,-0.1903,-0.1906,-0.1907,-0.1908,-0.201,-0.2011,0,0,0,0,0,0,-0.1661,-0.167,-0.1737,-0.1741,-0.1708,-0.1755,-0.1762,-0.1775,-0.182,-0.1827,-0.1802,-0.1804,-0.1866,-0.1873,-0.1879,-0.1948,-0.1906,-0.1909,-0.191,-0.2009,-0.201,-0.2011,0,0,0,0,0,0,-0.1659,-0.1666,-0.1734,-0.1708,-0.1717,-0.1756,-0.1769,-0.1776,-0.1813,-0.1829,-0.1836,-0.1836,-0.1867,-0.1875,-0.1923,-0.1949,-0.191,-0.1912,-0.2008,-0.2009,-0.2011,-0.2053,0,0,0,0,0,0,-0.1656,-0.1665,-0.1686,-0.1708,-0.1719,-0.177,-0.1769,-0.1777,-0.1817,-0.1821,-0.186,-0.1866,-0.1868,-0.1919,-0.1926,-0.1952,-0.1914,-0.2006,-0.2008,-0.201,-0.205,-0.2056,-0.206,0,0,0,0,0,-0.1652,-0.1673,-0.1686,-0.1695,-0.1741,-0.1771,-0.1779,-0.1805,-0.1819,-0.184,-0.1867,-0.1866,-0.1936,-0.1923,-0.193,-0.1958,-0.2005,-0.2008,-0.201,-0.2048,-0.2054,-0.206,0,0,0,0,0,0,-0.1646,-0.168,-0.1694,-0.1726,-0.1755,-0.1778,-0.1805,-0.1823,-0.1861,-0.1874,-0.1886,-0.1894,-0.1942,-0.1946,-0.1931,-0.1992,-0.1968,-0.1972,-0.1994,-0.2001,-0.2006,-0.1993,-0.1917,0,0,0,0,0,-0.1654,-0.168,-0.171,-0.1739,-0.1756,-0.1787,-0.1809,-0.1829,-0.1859,-0.1878,-0.1905,-0.1932,-0.1954,-0.1976,-0.1995,-0.2036,-0.2017,-0.2056,-0.2062,-0.2066,-0.2061,-0.2053,-0.2057,-0.2019,-0.2019,-0.2019,0,0,-0.1661,-0.1683,-0.17,-0.174,-0.1766,-0.1797,-0.1802,-0.1844,-0.1874,-0.188,-0.194,-0.1956,-0.1968,-0.2009,-0.2031,-0.202,-0.2068,-0.2069,-0.2073,-0.2065,-0.2056,-0.2059,-0.2062,-0.2021,-0.202,-0.202,0,0,-0.1675,-0.1708,-0.1732,-0.176,-0.1805,-0.1824,-0.1843,-0.1885,-0.1913,-0.1966,-0.1972,-0.2002,-0.2052,-0.2056,-0.2064,-0.2111,-0.2093,-0.2127,-0.2148,-0.2142,-0.2144,-0.2146,-0.2127,-0.2127,-0.2131,-0.2132,-0.2132,0,-0.1684,-0.1716,-0.1744,-0.1774,-0.1802,-0.1839,-0.1871,-0.1903,-0.1959,-0.198,-0.1993,-0.2053,-0.2068,-0.2096,-0.2112,-0.2122,-0.2113,-0.2124,-0.2147,-0.2149,-0.215,-0.213,-0.2129,-0.2134,-0.2134,-0.2133,-0.2133,0,-0.1705,-0.1745,-0.1764,-0.1812,-0.1846,-0.1883,-0.1925,-0.1968,-0.2008,-0.2033,-0.2085,-0.2104,-0.2132,-0.2146,-0.2147,-0.2169,-0.2157,-0.2152,-0.2128,-0.2156,-0.2133,-0.2132,-0.2137,-0.2136,-0.2136,-0.2135,0,0,-0.1684,-0.1763,-0.1773,-0.1805,-0.1872,-0.1897,-0.1955,-0.2005,-0.204,-0.2093,-0.213,-0.2167,-0.2177,-0.2185,-0.2191,-0.2191,-0.2195,-0.2183,-0.2182,-0.2158,-0.2176,-0.2039,-0.2024,-0.22,-0.22,-0.22,-0.2156,0,-0.1694,-0.1752,-0.1792,-0.1855,-0.1887,-0.1942,-0.1988,-0.204,-0.2086,-0.2132,-0.2153,-0.2191,-0.2192,-0.2211,-0.2212,-0.2205,-0.2194,-0.2207,-0.2157,-0.2155,-0.2025,-0.2019,-0.22,-0.2155,-0.2155,-0.2154,-0.2154,0,-0.1692,-0.1735,-0.1797,-0.1875,-0.1895,-0.1941,-0.2016,-0.2063,-0.2126,-0.2161,-0.2199,-0.2218,-0.2238,-0.223,-0.2219,-0.2232,-0.2204,-0.2189,-0.2187,-0.2039,-0.2015,-0.2122,-0.2151,-0.2151,-0.2152,-0.2152,-0.2152,0,-0.1644,-0.1733,-0.1784,-0.1813,-0.1907,-0.1949,-0.2002,-0.2073,-0.211,-0.218,-0.2206,-0.2237,-0.2253,-0.2236,-0.2211,-0.2222,-0.2179,-0.2187,-0.2031,-0.2021,-0.2141,-0.2139,-0.2156,-0.2156,-0.2156,-0.2156,-0.2156,0,-0.1617,-0.1662,-0.1773,-0.1799,-0.1858,-0.1934,-0.1995,-0.2051,-0.2122,-0.2146,-0.2216,-0.2221,-0.2256,-0.224,-0.2212,-0.2105,-0.2176,-0.2018,-0.1994,-0.2161,-0.2162,-0.214,-0.2138,-0.2154,-0.2155,-0.2155,-0.2155,0,-0.1546,-0.1625,-0.1687,-0.18,-0.1837,-0.1879,-0.1983,-0.2013,-0.21,-0.2132,-0.2154,-0.2213,-0.2186,-0.2189,-0.2155,-0.2082,-0.2011,-0.1953,-0.2121,-0.2111,-0.186,-0.1862,-0.1773,-0.1768,-0.1763,-0.1759,-0.1756,0,-0.1508,-0.1537,-0.1668,-0.1702,-0.1757,-0.1835,-0.1875,-0.1984,-0.2009,-0.2098,-0.2089,-0.2111,-0.2126,-0.196,-0.1991,-0.1911,-0.1886,-0.1839,-0.1852,-0.1831,-0.1818,-0.1827,-0.1835,-0.1749,-0.1748,-0.1747,-0.1746,0,-0.1429,-0.1494,-0.1544,-0.1616,-0.1675,-0.1726,-0.1795,-0.1799,-0.1902,-0.2004,-0.1956,-0.1925,-0.1888,-0.1853,-0.1797,-0.1746,-0.1869,-0.1792,-0.1801,-0.1813,-0.1801,-0.1795,-0.1808,-0.173,-0.1732,-0.1734,-0.1734,0,-0.1367,-0.1382,-0.1457,-0.1501,-0.1572,-0.1581,-0.1639,-0.1655,-0.1693,-0.1798,-0.1775,-0.1799,-0.1862,-0.1765,-0.1717,-0.1652,-0.163,-0.1574,-0.1595,-0.1613,-0.1579,-0.1542,-0.1352,0,0,0,0,0,-0.1293,-0.1294,-0.1329,-0.1372,-0.1436,-0.1471,-0.1562,-0.1622,-0.1727,-0.1642,-0.1702,-0.1657,-0.1586,-0.1608,-0.1503,-0.1645,-0.1639,-0.1517,-0.1589,-0.1643,-0.1661,-0.1636,0,0,0,0,0,0,-0.1244,-0.1277,-0.1284,-0.1247,-0.1247,-0.1296,-0.1345,-0.1421,-0.1387,-0.1498,-0.1465,-0.155,-0.1505,-0.1609,-0.1465,-0.1469,-0.1477,-0.1546,-0.1541,-0.1632,-0.1649,-0.1663,-0.1644,0,0,0,0,0]},{"header":{"parameterUnit":"m.s-1","parameterCategory":2,"la1":30.2991,"la2":30.254,"lo1":-89.0895,"lo2":-89.0444,"dy":0.0017,"dx":0.0017,"nx":28,"ny":28,"refTime":"2024-12-01T03:00:00:Z","depth":"4","parameterNumber":3,"parameterNumberName":"V-component_of_CURRENTS"},"data":[0,0,0,0,0,0,0,0,0,0,0,0,0,0,0,0,0,0,0,0,0,0,0,0,0,0,0,0,0,0,0,0,0,0,0,0,0,0,0,0,0,0,0,0,0,0,0,0,0,0,0,0,0,0,0,0,0,0,-0.0242,-0.0242,0,-0.0198,-0.0198,-0.0197,-0.0163,-0.0163,-0.0162,-0.0162,-0.0083,-0.0081,-0.0079,0,0,0,0,0,0,0,0,0,0,0,0,0,-0.0257,-0.0257,-0.0242,-0.0242,-0.0241,-0.0198,-0.0198,-0.0197,-0.0163,-0.0163,-0.0162,-0.0162,-0.0083,-0.0081,-0.0079,0,0,0,0,0,0,0,0,0,0,0,0,0,-0.0235,-0.0257,-0.0242,-0.022,-0.0218,-0.0199,-0.0198,-0.0197,-0.0163,-0.0163,-0.0162,-0.0162,-0.0084,-0.0081,-0.0078,-0.0068,0,0,-0.007,-0.0069,0,0,0,0,0,0,0,0,-0.0236,-0.0234,-0.0224,-0.0221,-0.0219,-0.0187,-0.0174,-0.0152,-0.0163,-0.0183,-0.0162,-0.0162,-0.0115,-0.011,-0.0101,-0.0064,-0.0061,-0.007,-0.0068,-0.0067,-0.0066,0,0,0,0,0,0,0,-0.0238,-0.0236,-0.0224,-0.0223,-0.022,-0.0199,-0.0195,-0.017,-0.015,-0.0181,-0.0178,-0.0175,-0.0113,-0.0104,-0.0099,-0.006,-0.007,-0.0067,-0.0065,-0.0064,-0.0007,-0.0007,0,0,0,0,0,0,-0.0248,-0.0238,-0.0225,-0.0223,-0.0228,-0.0199,-0.0195,-0.0196,-0.0151,-0.0144,-0.0176,-0.0174,-0.0109,-0.0102,-0.0096,-0.0078,-0.0067,-0.0064,-0.0062,-0.0007,-0.0007,-0.0007,0,0,0,0,0,0,-0.0249,-0.0248,-0.0227,-0.0229,-0.0226,-0.0199,-0.0201,-0.0196,-0.0189,-0.0148,-0.014,-0.0175,-0.0109,-0.01,-0.0078,-0.0074,-0.0063,-0.006,-0.0007,-0.0007,-0.0007,-0.0043,0,0,0,0,0,0,-0.0249,-0.0248,-0.0255,-0.0231,-0.0226,-0.0222,-0.0201,-0.0195,-0.0188,-0.0186,-0.0144,-0.0136,-0.0108,-0.0083,-0.0076,-0.007,-0.0058,-0.0006,-0.0007,-0.0007,-0.0041,-0.0044,-0.0047,0,0,0,0,0,-0.025,-0.0261,-0.0256,-0.0254,-0.0236,-0.0222,-0.0218,-0.0197,-0.0189,-0.0189,-0.0162,-0.0138,-0.008,-0.0081,-0.0072,-0.0066,-0.0006,-0.0007,-0.0007,-0.004,-0.0044,-0.0047,0,0,0,0,0,0,-0.0271,-0.0258,-0.0252,-0.0259,-0.0245,-0.0217,-0.0217,-0.0203,-0.0183,-0.0181,-0.0141,-0.0131,-0.0112,-0.0087,-0.0089,-0.0051,-0.0039,-0.0037,-0.0067,-0.007,-0.0072,-0.0076,-0.0056,0,0,0,0,0,-0.028,-0.0286,-0.0267,-0.0273,-0.0269,-0.0245,-0.0239,-0.0225,-0.0203,-0.0194,-0.0165,-0.0134,-0.0106,-0.0088,-0.0064,-0.0042,-0.0009,-0.0032,-0.0035,-0.0038,-0.0036,0.002,0.0023,-0.0009,-0.0009,-0.0009,0,0,-0.029,-0.0284,-0.0288,-0.0279,-0.0267,-0.0264,-0.024,-0.0236,-0.0229,-0.0188,-0.0173,-0.0146,-0.0105,-0.0083,-0.0071,-0.006,-0.0014,-0.0038,-0.004,-0.0037,0.002,0.0023,0.0026,-0.0009,-0.0009,-0.0009,0,0,-0.0312,-0.0309,-0.032,-0.0312,-0.0301,-0.0284,-0.0286,-0.0263,-0.0248,-0.0234,-0.0201,-0.017,-0.0135,-0.0096,-0.0074,-0.0076,-0.0035,-0.0073,-0.008,-0.0027,-0.0024,-0.002,0.0016,0.0023,-0.0067,-0.0067,-0.0068,0,-0.0325,-0.0336,-0.0321,-0.0328,-0.0324,-0.0297,-0.0304,-0.0285,-0.0257,-0.0241,-0.0236,-0.017,-0.0137,-0.0091,-0.0093,-0.0079,-0.0051,-0.0072,-0.003,-0.0026,-0.0022,0.0015,0.0024,-0.0069,-0.0069,-0.0069,-0.0069,0,-0.0351,-0.0361,-0.0367,-0.0366,-0.036,-0.0363,-0.0337,-0.0325,-0.0307,-0.028,-0.0241,-0.0195,-0.0151,-0.0136,-0.0115,-0.0069,-0.0061,-0.0045,-0.0021,-0.002,0.0018,0.0027,-0.0072,-0.0071,-0.0071,-0.007,0,0,-0.0377,-0.0385,-0.0388,-0.0396,-0.0382,-0.0381,-0.0368,-0.0343,-0.0331,-0.0294,-0.0267,-0.0213,-0.0183,-0.0156,-0.0117,-0.0068,-0.0019,-0.005,-0.0046,-0.0013,0.0087,0.0068,0.0076,0.0004,0.0005,0.0007,0.0099,0,-0.0402,-0.0431,-0.0421,-0.0441,-0.0452,-0.0423,-0.0414,-0.0386,-0.0354,-0.0322,-0.0255,-0.0222,-0.0191,-0.0173,-0.0117,-0.0047,0.0004,-0.0047,0.0081,0.0085,0.0069,0.0086,0.0012,0.0106,0.0108,0.0109,0.0111,0,-0.0429,-0.0446,-0.0476,-0.0481,-0.0483,-0.0489,-0.0468,-0.0454,-0.0394,-0.0368,-0.0311,-0.0262,-0.0185,-0.0164,-0.0028,-0.0065,0.0006,0.0064,0.0069,0.0072,0.0083,0.0108,0.0128,0.0126,0.0125,0.0124,0.0123,0,-0.0459,-0.048,-0.0509,-0.0513,-0.0513,-0.0519,-0.0515,-0.0473,-0.0461,-0.0397,-0.038,-0.0278,-0.0236,-0.0127,-0.0013,-0.0018,0.0133,0.0145,0.0199,0.0199,0.0204,0.02,0.0247,0.0247,0.0247,0.0246,0.0246,0,-0.0485,-0.0508,-0.0533,-0.0549,-0.0581,-0.0563,-0.0577,-0.0553,-0.0514,-0.0498,-0.0411,-0.0373,-0.0225,-0.0123,-0.0015,0.0116,0.0138,0.0203,0.0226,0.0184,0.0177,0.021,0.0205,0.025,0.0249,0.0248,0.0248,0,-0.051,-0.0525,-0.0564,-0.0588,-0.0601,-0.0625,-0.0637,-0.0638,-0.0597,-0.0572,-0.0556,-0.0438,-0.0304,-0.0155,0.0025,0.0102,0.0236,0.0278,0.0212,0.0229,0.0265,0.0257,0.035,0.035,0.035,0.035,0.035,0,-0.0523,-0.0548,-0.0605,-0.0639,-0.0657,-0.0691,-0.0711,-0.0687,-0.068,-0.061,-0.0594,-0.0469,-0.0377,-0.0131,0.0018,0.0229,0.0255,0.0315,0.0302,0.0265,0.0279,0.027,0.0261,0.0351,0.0351,0.0351,0.0351,0,-0.0547,-0.0575,-0.0609,-0.0686,-0.0729,-0.0764,-0.0786,-0.0788,-0.0746,-0.0715,-0.0609,-0.0475,-0.0324,-0.0133,0.0027,0.0177,0.0271,0.0318,0.0318,0.0306,0.0267,0.0279,0.027,0.0351,0.0351,0.0351,0.0351,0,-0.0563,-0.0601,-0.0657,-0.0717,-0.0778,-0.0814,-0.0824,-0.0799,-0.078,-0.0692,-0.066,-0.0484,-0.0378,-0.016,-0.0011,0.0132,0.0167,0.0204,0.0211,0.0212,0.0141,0.0069,0.0119,0,0,0,0,0,-0.0572,-0.0617,-0.0681,-0.0746,-0.0808,-0.0836,-0.0858,-0.0852,-0.0818,-0.0746,-0.0695,-0.0546,-0.0311,-0.0204,-0.0061,-0.0023,0.0175,0.0145,0.0216,0.0355,0.0354,0.0291,0,0,0,0,0,0,-0.058,-0.0645,-0.068,-0.0753,-0.08,-0.0855,-0.0871,-0.085,-0.0793,-0.074,-0.0606,-0.0526,-0.029,-0.0387,-0.0061,-0.0018,0.0042,0.0263,0.0265,0.0355,0.0355,0.0354,0.0289,0,0,0,0,0]}]]